Skip Navigation Links
NOAA logo - Click to go to the NOAA homepage
NOAA's National Weather Service
Alaska Aviation Weather Unit
  NWS logo - Click to go to the NWS homepage
Left Navbar Graphic     17 AKDT = 01 GMT

   
NOAA is celebrating 200 years of science, service, and stewardship. Visit the NOAA 200th celebration Web site to learn more.
USA.gov is the U.S. Government's official Web portal to all Federal, state and local government Web resources and services.
Facebook
NWS on Facebook

Important Change Regarding the AAWU Web Presence

 

Over the last several months, the AAWU has been working to navigate its webpages to a nationally supported server. Security, as well as other needs, have necessitated the change.  In the process, we have made an effort to enhance the functionality of our website, as well as some of our products. As of June 27, 2017, aawu.arh.noaa.gov will be discontinued. The new AAWU web address is weather.gov/aawu. It is now live and will run in-parallel with the old site until it is discontinued. Please send any feedback or questions regarding the new webpages to nws.ar.aawu.webauthors@noaa.gov.  Thank you for your patience during this time of transition.
AAWU Home :: Display TAF Add Bookmark
TAF PABI 240600Z 2406/2512 29009KT 9999 SCT070 BKN150 QNH3012INS
      BECMG 2420/2421 30009KT 9999 VCSH SCT050 BKN100 QNH3003INS
      TEMPO 2422/2504 30010G15KT 9000 -SHRA FEW030 BKN050 BKN100
      TX21/2501Z TN11/2413Z
      LAST NO AMDS AFT 2407
      NEXT 2614=

METAR PABI 251953Z 27004KT 10SM SCT065 SCT090 SCT110 BKN200 19/04 A2997= METAR PABI 252053Z 29010KT 10SM -RA SCT065 SCT100 BKN200 18/05 A2996= METAR PABI 252153Z 00000KT 10SM SCT065 SCT100 BKN200 19/06 A2995= METAR PABI 252353Z 30007KT 10SM -RA SCT065 SCT100 OVC200 18/08 A2994= METAR PABI 260053Z 27008KT 10SM SCT065CB BKN100 OVC200 19/07 A2992=
 Alaska TAF Map

NOAA's National Weather Service
Alaska Aviation Weather Unit
6930 Sand Lake Road
Anchorage, AK 99502-1845
Disclaimer
Credits
Glossary
Privacy Policy
About Us
Career Opportunities
Contact AAWU Internet Services Site last modified: April, 17th 2012